Regional Weather Roundup
Issued by NWS Spokane, WA

Home | Current Version | Previous Version | Text Only | Print | Product List | Glossary On
Versions: 1 2 3 4 5 6 7 8 9 10 11 12 13 14 15 16 17 18 19 20 21 22 23 24 25 26 27 28 29 30 31 32 33 34 35 36 37 38 39 40 41 42 43 44 45 46 47 48 49 50
000
NZUS01 KOTX 220510
RWROTX
EASTERN WASHINGTON/NORTHERN IDAHO ROUNDUP
NATIONAL WEATHER SERVICE, SPOKANE WA
900 PM PST SUN DEC 21 2014

Note: "fair" indicated few or no clouds below 12,000 feet with no
significant weather and/or obstructions to visibility.

...NORTHEAST WASHINGTON AND NORTHERN IDAHO PANHANDLE...

CITY           SKY/WX    TMP DP  RH WIND       PRES   REMARKS
SPOKANE INTL   CLOUDY    40  34  79 SW13      29.92R
SPOKANE DOWNTO CLOUDY    43  34  70 SW9       29.93S
COEUR D ALENE  CLOUDY    41  34  75 W12       29.90S
DEER PARK      CLOUDY    38  34  85 S12       29.92R
SANDPOINT      CLOUDY    41  34  75 SW6       29.88R

...SOUTHEAST WASHINGTON AND SOUTHERN IDAHO PANHANDLE...

CITY           SKY/WX    TMP DP  RH WIND       PRES   REMARKS
WALLA WALLA    CLOUDY    50  41  71 SW13      30.06R
PULLMAN/MOSCOW CLOUDY    43  38  82 SW22G31   29.98S
LEWISTON       CLOUDY    50  36  58 W9        29.99R
LOWELL           N/A     42  40  92 CALM      30.00R

...COLUMBIA BASIN...

CITY           SKY/WX    TMP DP  RH WIND       PRES   REMARKS
EPHRATA        PTCLDY    43  33  68 SW6       29.98R
MOSES LAKE     PTCLDY    42  35  76 SW9       30.00R
TRI CITIES     CLOUDY    50  43  77 SW10      30.05S
HERMISTON      CLOUDY    50  41  71 SW13      30.06R
PENDLETON      CLOUDY    48  39  71 W15G22    30.06R

...EAST SLOPES CASCADES...

CITY           SKY/WX    TMP DP  RH WIND       PRES   REMARKS
THE DALLES     CLOUDY    52  43  71 CALM      30.09S
ELLENSBURG     PTCLDY    42  34  73 NW9       30.03R
WENATCHEE      PTCLDY    44  35  70 NW9       30.01R
OMAK           MOCLDY    41  33  73 SE8       29.94R

...SOUTHERN BRITISH COLUMBIA...

CITY           SKY/WX    TMP DP  RH WIND       PRES   REMARKS
PENTICTON      MOCLDY    43  36  75 S10G23    29.91R
CRANBROOK      PTCLDY    28  25  86 W5        29.78  WCI  23

...WESTERN MONTANA...

CITY           SKY/WX    TMP DP  RH WIND       PRES   REMARKS
MISSOULA       CLOUDY    39  29  67 NW12      29.87R

...NEIGHBORING CITIES...

CITY           SKY/WX    TMP DP  RH WIND       PRES   REMARKS
SEATTLE        CLOUDY    51  45  79 SW12      30.10R



USA.gov is the U.S. government's official web portal to all federal, state and local government web resources and services.